contact:dominique.lefevre@mio.osupytheas.fr, maurice.libes@osupytheas.fr, didier.mallarino@osupytheas.fr
Project:EMSO http://www.emso-fr.org/EMSO-France
Depth: 2436.0 m
Title:EMSO Ligure Ouest : Data MII capteur CSTAR
DateTime,Latitude,Longitude,Instrument_Serial,Reference_Counts,Signal_Counts,Corrected_Signal_raw_counts,Calculated_Beam_c_inverse_meters,Internal_thermistor_counts
DateTime,Latitude,Longitude,Instrument_Serial,Reference_Counts,Signal_Counts,Corrected_Signal_raw_counts,Calculated_Beam_c_inverse_meters,Internal_thermistor_counts
2021-11-30T00:02:58,42.805,6.029,CST-1368DR,5055,6576,13911,0.462,551
2021-11-30T00:06:00,42.805,6.029,CST-1368DR,5055,6577,13912,0.462,551
2021-11-30T00:09:01,42.805,6.029,CST-1368DR,5055,6577,13912,0.462,551
2021-11-30T00:12:03,42.805,6.029,CST-1368DR,5055,6576,13911,0.462,550
2021-11-30T00:15:05,42.805,6.029,CST-1368DR,5055,6576,13911,0.462,551
2021-11-30T00:18:06,42.805,6.029,CST-1368DR,5055,6575,13909,0.463,551
2021-11-30T00:21:08,42.805,6.029,CST-1368DR,5055,6572,13902,0.465,551
2021-11-30T00:24:09,42.805,6.029,CST-1368DR,5055,6577,13912,0.462,551
2021-11-30T00:27:11,42.805,6.029,CST-1368DR,5055,6577,13912,0.462,551
2021-11-30T00:30:12,42.805,6.029,CST-1368DR,5055,6575,13909,0.463,551
2021-11-30T00:33:14,42.805,6.029,CST-1368DR,5055,6577,13912,0.462,551
2021-11-30T00:36:16,42.805,6.029,CST-1368DR,5055,6576,13911,0.462,551
2021-11-30T00:39:17,42.805,6.029,CST-1368DR,5055,6576,13911,0.462,551
2021-11-30T00:42:19,42.805,6.029,CST-1368DR,5055,6577,13912,0.462,551
2021-11-30T00:45:20,42.805,6.029,CST-1368DR,5055,6577,13912,0.462,551
2021-11-30T00:48:22,42.805,6.029,CST-1368DR,5055,6576,13911,0.462,551
2021-11-30T00:51:24,42.805,6.029,CST-1368DR,5055,6575,13909,0.463,551
2021-11-30T00:54:25,42.805,6.029,CST-1368DR,5055,6577,13912,0.462,551
2021-11-30T00:57:27,42.805,6.029,CST-1368DR,5055,6576,13911,0.462,551
2021-11-30T01:00:28,42.805,6.029,CST-1368DR,5055,6576,13911,0.462,551
2021-11-30T01:03:30,42.805,6.029,CST-1368DR,5055,6576,13911,0.462,551
2021-11-30T01:06:31,42.805,6.029,CST-1368DR,5055,6576,13911,0.462,551
2021-11-30T01:09:33,42.805,6.029,CST-1368DR,5055,6575,13909,0.463,551
2021-11-30T01:12:35,42.805,6.029,CST-1368DR,5055,6577,13912,0.462,551
2021-11-30T01:15:36,42.805,6.029,CST-1368DR,5055,6577,13912,0.462,551
2021-11-30T01:18:38,42.805,6.029,CST-1368DR,5055,6576,13911,0.462,551
2021-11-30T01:21:39,42.805,6.029,CST-1368DR,5055,6576,13911,0.462,551
2021-11-30T01:24:41,42.805,6.029,CST-1368DR,5055,6577,13912,0.462,551
2021-11-30T01:27:43,42.805,6.029,CST-1368DR,5055,6577,13912,0.462,551
2021-11-30T01:30:44,42.805,6.029,CST-1368DR,5055,6576,13910,0.463,551
2021-11-30T01:33:46,42.805,6.029,CST-1368DR,5055,6577,13912,0.462,551
2021-11-30T01:36:47,42.805,6.029,CST-1368DR,5055,6576,13911,0.462,551
2021-11-30T01:39:49,42.805,6.029,CST-1368DR,5055,6577,13912,0.462,551
2021-11-30T01:42:50,42.805,6.029,CST-1368DR,5055,6576,13911,0.462,551
2021-11-30T01:45:52,42.805,6.029,CST-1368DR,5055,6576,13911,0.462,551
2021-11-30T01:48:54,42.805,6.029,CST-1368DR,5055,6577,13912,0.462,551
2021-11-30T01:51:55,42.805,6.029,CST-1368DR,5055,6577,13913,0.462,551
2021-11-30T01:54:57,42.805,6.029,CST-1368DR,5055,6577,13913,0.462,551
2021-11-30T01:57:58,42.805,6.029,CST-1368DR,5055,6576,13911,0.462,551
2021-11-30T02:01:00,42.805,6.029,CST-1368DR,5055,6577,13912,0.462,551
2021-11-30T02:04:02,42.805,6.029,CST-1368DR,5055,6577,13913,0.462,551
2021-11-30T02:07:03,42.805,6.029,CST-1368DR,5055,6577,13912,0.462,551
2021-11-30T02:10:05,42.805,6.029,CST-1368DR,5055,6577,13912,0.462,551
2021-11-30T02:13:06,42.805,6.029,CST-1368DR,5055,6576,13911,0.462,551
2021-11-30T02:16:08,42.805,6.029,CST-1368DR,5055,6576,13911,0.462,551
2021-11-30T02:19:09,42.805,6.029,CST-1368DR,5055,6577,13912,0.462,551
2021-11-30T02:22:11,42.805,6.029,CST-1368DR,5055,6578,13914,0.462,551
2021-11-30T02:25:13,42.805,6.029,CST-1368DR,5055,6576,13911,0.462,551
2021-11-30T02:28:14,42.805,6.029,CST-1368DR,5055,6576,13911,0.462,551
2021-11-30T02:31:16,42.805,6.029,CST-1368DR,5055,6576,13911,0.462,551
2021-11-30T02:34:17,42.805,6.029,CST-1368DR,5055,6576,13911,0.462,551
2021-11-30T02:37:19,42.805,6.029,CST-1368DR,5055,6577,13912,0.462,551
2021-11-30T02:40:21,42.805,6.029,CST-1368DR,5055,6576,13911,0.462,551
2021-11-30T02:43:22,42.805,6.029,CST-1368DR,5055,6577,13912,0.462,551
2021-11-30T02:46:24,42.805,6.029,CST-1368DR,5055,6577,13912,0.462,551
2021-11-30T02:49:25,42.805,6.029,CST-1368DR,5055,6577,13912,0.462,551
2021-11-30T02:52:27,42.805,6.029,CST-1368DR,5055,6576,13911,0.462,551
2021-11-30T02:55:28,42.805,6.029,CST-1368DR,5055,6575,13909,0.463,551
2021-11-30T02:58:30,42.805,6.029,CST-1368DR,5055,6576,13910,0.463,551
2021-11-30T03:01:32,42.805,6.029,CST-1368DR,5055,6576,13911,0.462,551
2021-11-30T03:04:33,42.805,6.029,CST-1368DR,5055,6576,13911,0.462,551
2021-11-30T03:07:35,42.805,6.029,CST-1368DR,5055,6577,13913,0.462,551
2021-11-30T03:10:36,42.805,6.029,CST-1368DR,5055,6576,13911,0.462,551
2021-11-30T03:13:38,42.805,6.029,CST-1368DR,5055,6577,13912,0.462,551
2021-11-30T03:16:39,42.805,6.029,CST-1368DR,5055,6576,13911,0.462,551
2021-11-30T03:19:41,42.805,6.029,CST-1368DR,5055,6577,13913,0.462,551
2021-11-30T03:22:43,42.805,6.029,CST-1368DR,5055,6576,13911,0.462,551
2021-11-30T03:25:44,42.805,6.029,CST-1368DR,5055,6576,13911,0.462,551
2021-11-30T03:28:46,42.805,6.029,CST-1368DR,5055,6576,13911,0.462,551
2021-11-30T03:31:47,42.805,6.029,CST-1368DR,5055,6576,13911,0.462,551
2021-11-30T03:34:49,42.805,6.029,CST-1368DR,5055,6576,13911,0.462,551
2021-11-30T03:37:51,42.805,6.029,CST-1368DR,5055,6576,13911,0.462,551
2021-11-30T03:40:52,42.805,6.029,CST-1368DR,5055,6576,13911,0.462,551
2021-11-30T03:43:54,42.805,6.029,CST-1368DR,5055,6577,13912,0.462,551
2021-11-30T03:46:55,42.805,6.029,CST-1368DR,5055,6574,13907,0.464,551
2021-11-30T03:49:57,42.805,6.029,CST-1368DR,5055,6576,13910,0.463,551
2021-11-30T03:52:58,42.805,6.029,CST-1368DR,5055,6576,13911,0.462,551
2021-11-30T03:56:00,42.805,6.029,CST-1368DR,5055,6576,13910,0.463,551
2021-11-30T03:59:02,42.805,6.029,CST-1368DR,5055,6576,13911,0.462,551
2021-11-30T04:02:03,42.805,6.029,CST-1368DR,5055,6576,13911,0.462,551
2021-11-30T04:05:05,42.805,6.029,CST-1368DR,5055,6576,13911,0.462,551
2021-11-30T04:08:06,42.805,6.029,CST-1368DR,5055,6576,13911,0.462,551
2021-11-30T04:11:08,42.805,6.029,CST-1368DR,5055,6576,13911,0.462,551
2021-11-30T04:14:09,42.805,6.029,CST-1368DR,5055,6576,13911,0.462,551
2021-11-30T04:17:11,42.805,6.029,CST-1368DR,5055,6576,13910,0.463,551
2021-11-30T04:20:13,42.805,6.029,CST-1368DR,5055,6576,13911,0.462,551
2021-11-30T04:23:14,42.805,6.029,CST-1368DR,5055,6575,13908,0.463,551
2021-11-30T04:26:16,42.805,6.029,CST-1368DR,5055,6576,13911,0.462,551
2021-11-30T04:29:17,42.805,6.029,CST-1368DR,5055,6576,13910,0.463,551
2021-11-30T04:32:19,42.805,6.029,CST-1368DR,5055,6576,13910,0.463,551
2021-11-30T04:35:21,42.805,6.029,CST-1368DR,5055,6576,13910,0.463,551
2021-11-30T04:38:22,42.805,6.029,CST-1368DR,5055,6574,13907,0.464,551
2021-11-30T04:41:24,42.805,6.029,CST-1368DR,5055,6575,13909,0.463,551
2021-11-30T04:44:25,42.805,6.029,CST-1368DR,5055,6575,13909,0.463,551
2021-11-30T04:47:27,42.805,6.029,CST-1368DR,5055,6576,13911,0.462,551
2021-11-30T04:50:28,42.805,6.029,CST-1368DR,5055,6576,13911,0.462,551
2021-11-30T04:53:30,42.805,6.029,CST-1368DR,5055,6575,13908,0.463,551
2021-11-30T04:56:32,42.805,6.029,CST-1368DR,5055,6573,13904,0.464,551
2021-11-30T04:59:33,42.805,6.029,CST-1368DR,5055,6576,13910,0.463,551
2021-11-30T05:02:35,42.805,6.029,CST-1368DR,5055,6575,13909,0.463,551
2021-11-30T05:05:36,42.805,6.029,CST-1368DR,5055,6574,13907,0.464,551
2021-11-30T05:08:38,42.805,6.029,CST-1368DR,5054,6575,13910,0.463,551
2021-11-30T05:11:40,42.805,6.029,CST-1368DR,5055,6575,13908,0.463,551
2021-11-30T05:14:41,42.805,6.029,CST-1368DR,5055,6574,13907,0.464,551
2021-11-30T05:17:43,42.805,6.029,CST-1368DR,5054,6575,13911,0.462,551
2021-11-30T05:20:44,42.805,6.029,CST-1368DR,5054,6575,13912,0.462,551
2021-11-30T05:23:46,42.805,6.029,CST-1368DR,5054,6575,13910,0.463,551
2021-11-30T05:26:47,42.805,6.029,CST-1368DR,5054,6576,13912,0.462,551
2021-11-30T05:29:49,42.805,6.029,CST-1368DR,5054,6576,13912,0.462,551
2021-11-30T05:32:51,42.805,6.029,CST-1368DR,5054,6575,13911,0.462,551
2021-11-30T05:35:52,42.805,6.029,CST-1368DR,5054,6576,13912,0.462,551
2021-11-30T05:38:54,42.805,6.029,CST-1368DR,5054,6575,13911,0.462,551
2021-11-30T05:41:55,42.805,6.029,CST-1368DR,5054,6575,13911,0.462,551
2021-11-30T05:44:57,42.805,6.029,CST-1368DR,5054,6575,13912,0.462,551
2021-11-30T05:47:59,42.805,6.029,CST-1368DR,5054,6575,13911,0.462,551
2021-11-30T05:51:00,42.805,6.029,CST-1368DR,5054,6576,13913,0.462,551
2021-11-30T05:54:02,42.805,6.029,CST-1368DR,5054,6575,13911,0.462,551
2021-11-30T05:57:03,42.805,6.029,CST-1368DR,5054,6574,13910,0.463,551
2021-11-30T06:00:05,42.805,6.029,CST-1368DR,5054,6575,13911,0.462,551
2021-11-30T06:03:06,42.805,6.029,CST-1368DR,5054,6576,13913,0.462,551
2021-11-30T06:06:08,42.805,6.029,CST-1368DR,5054,6576,13913,0.462,551
2021-11-30T06:09:10,42.805,6.029,CST-1368DR,5054,6573,13907,0.464,551
2021-11-30T06:12:11,42.805,6.029,CST-1368DR,5054,6575,13911,0.462,551
2021-11-30T06:15:13,42.805,6.029,CST-1368DR,5054,6573,13907,0.464,551
2021-11-30T06:18:14,42.805,6.029,CST-1368DR,5054,6576,13912,0.462,551
2021-11-30T06:21:16,42.805,6.029,CST-1368DR,5054,6575,13912,0.462,551
2021-11-30T06:24:17,42.805,6.029,CST-1368DR,5054,6575,13912,0.462,551
2021-11-30T06:27:19,42.805,6.029,CST-1368DR,5054,6576,13913,0.462,551
2021-11-30T06:30:21,42.805,6.029,CST-1368DR,5054,6575,13911,0.462,551
2021-11-30T06:33:22,42.805,6.029,CST-1368DR,5054,6575,13911,0.462,551
2021-11-30T06:36:24,42.805,6.029,CST-1368DR,5054,6575,13911,0.462,551
2021-11-30T06:39:25,42.805,6.029,CST-1368DR,5054,6575,13912,0.462,551
2021-11-30T06:42:27,42.805,6.029,CST-1368DR,5054,6575,13910,0.463,551
2021-11-30T06:45:29,42.805,6.029,CST-1368DR,5054,6575,13912,0.462,551
2021-11-30T06:48:30,42.805,6.029,CST-1368DR,5054,6576,13912,0.462,551
2021-11-30T06:51:32,42.805,6.029,CST-1368DR,5054,6576,13914,0.462,551
2021-11-30T06:54:33,42.805,6.029,CST-1368DR,5054,6574,13909,0.463,551
2021-11-30T06:57:35,42.805,6.029,CST-1368DR,5054,6576,13912,0.462,551
2021-11-30T07:00:36,42.805,6.029,CST-1368DR,5054,6576,13913,0.462,551
2021-11-30T07:03:38,42.805,6.029,CST-1368DR,5054,6576,13913,0.462,551
2021-11-30T07:06:40,42.805,6.029,CST-1368DR,5054,6574,13910,0.463,551
2021-11-30T07:09:41,42.805,6.029,CST-1368DR,5054,6576,13912,0.462,551
2021-11-30T07:12:43,42.805,6.029,CST-1368DR,5054,6575,13911,0.462,551
2021-11-30T07:15:44,42.805,6.029,CST-1368DR,5054,6576,13912,0.462,551
2021-11-30T07:18:46,42.805,6.029,CST-1368DR,5054,6575,13911,0.462,551
2021-11-30T07:21:48,42.805,6.029,CST-1368DR,5054,6576,13912,0.462,551
2021-11-30T07:24:49,42.805,6.029,CST-1368DR,5054,6576,13913,0.462,551
2021-11-30T07:27:51,42.805,6.029,CST-1368DR,5054,6576,13912,0.462,551
2021-11-30T07:30:52,42.805,6.029,CST-1368DR,5054,6576,13913,0.462,551
2021-11-30T07:33:54,42.805,6.029,CST-1368DR,5054,6575,13911,0.462,551
2021-11-30T07:36:55,42.805,6.029,CST-1368DR,5054,6576,13912,0.462,551
2021-11-30T07:39:57,42.805,6.029,CST-1368DR,5054,6576,13913,0.462,551
2021-11-30T07:42:59,42.805,6.029,CST-1368DR,5054,6576,13913,0.462,551
2021-11-30T07:46:00,42.805,6.029,CST-1368DR,5054,6576,13913,0.462,551
2021-11-30T07:49:02,42.805,6.029,CST-1368DR,5054,6576,13913,0.462,551
2021-11-30T07:52:03,42.805,6.029,CST-1368DR,5054,6577,13914,0.462,551
2021-11-30T07:55:05,42.805,6.029,CST-1368DR,5054,6576,13912,0.462,551
2021-11-30T07:58:07,42.805,6.029,CST-1368DR,5054,6576,13913,0.462,551
2021-11-30T08:01:08,42.805,6.029,CST-1368DR,5054,6576,13913,0.462,551
2021-11-30T08:04:10,42.805,6.029,CST-1368DR,5054,6576,13913,0.462,551
2021-11-30T08:07:11,42.805,6.029,CST-1368DR,5054,6576,13914,0.462,551
2021-11-30T08:10:13,42.805,6.029,CST-1368DR,5054,6575,13912,0.462,551
2021-11-30T08:13:14,42.805,6.029,CST-1368DR,5054,6576,13913,0.462,551
2021-11-30T08:16:16,42.805,6.029,CST-1368DR,5054,6576,13912,0.462,551
2021-11-30T08:19:18,42.805,6.029,CST-1368DR,5054,6576,13913,0.462,551
2021-11-30T08:22:19,42.805,6.029,CST-1368DR,5054,6575,13912,0.462,551
2021-11-30T08:25:21,42.805,6.029,CST-1368DR,5054,6576,13912,0.462,551
2021-11-30T08:28:22,42.805,6.029,CST-1368DR,5054,6576,13913,0.462,551
2021-11-30T08:31:24,42.805,6.029,CST-1368DR,5054,6576,13913,0.462,551
2021-11-30T08:34:25,42.805,6.029,CST-1368DR,5054,6576,13913,0.462,551
2021-11-30T08:37:27,42.805,6.029,CST-1368DR,5054,6576,13913,0.462,551
2021-11-30T08:40:29,42.805,6.029,CST-1368DR,5054,6577,13915,0.461,551
2021-11-30T08:43:30,42.805,6.029,CST-1368DR,5054,6575,13911,0.462,551
2021-11-30T08:46:32,42.805,6.029,CST-1368DR,5054,6576,13913,0.462,551
2021-11-30T08:49:33,42.805,6.029,CST-1368DR,5054,6575,13912,0.462,551
2021-11-30T08:52:35,42.805,6.029,CST-1368DR,5054,6576,13912,0.462,551
2021-11-30T08:55:37,42.805,6.029,CST-1368DR,5054,6573,13908,0.463,551
2021-11-30T08:58:38,42.805,6.029,CST-1368DR,5054,6576,13912,0.462,551
2021-11-30T09:01:40,42.805,6.029,CST-1368DR,5054,6576,13913,0.462,551
2021-11-30T09:04:41,42.805,6.029,CST-1368DR,5054,6575,13911,0.462,551
2021-11-30T09:07:43,42.805,6.029,CST-1368DR,5054,6576,13913,0.462,551
2021-11-30T09:10:44,42.805,6.029,CST-1368DR,5054,6577,13914,0.462,551
2021-11-30T09:13:46,42.805,6.029,CST-1368DR,5054,6577,13914,0.462,551
2021-11-30T09:16:48,42.805,6.029,CST-1368DR,5054,6575,13912,0.462,551
2021-11-30T09:19:49,42.805,6.029,CST-1368DR,5054,6576,13913,0.462,551
2021-11-30T09:22:51,42.805,6.029,CST-1368DR,5054,6576,13913,0.462,551
2021-11-30T09:25:52,42.805,6.029,CST-1368DR,5054,6576,13912,0.462,551
2021-11-30T09:28:54,42.805,6.029,CST-1368DR,5054,6576,13913,0.462,551
2021-11-30T09:31:55,42.805,6.029,CST-1368DR,5054,6575,13911,0.462,551
2021-11-30T09:34:57,42.805,6.029,CST-1368DR,5054,6576,13912,0.462,551
2021-11-30T09:37:59,42.805,6.029,CST-1368DR,5054,6575,13911,0.462,551
2021-11-30T09:41:00,42.805,6.029,CST-1368DR,5054,6575,13911,0.462,551
2021-11-30T09:44:02,42.805,6.029,CST-1368DR,5054,6575,13912,0.462,551
2021-11-30T09:47:03,42.805,6.029,CST-1368DR,5054,6576,13913,0.462,551
2021-11-30T09:50:05,42.805,6.029,CST-1368DR,5054,6575,13911,0.462,551
2021-11-30T09:53:07,42.805,6.029,CST-1368DR,5054,6575,13911,0.462,551
2021-11-30T09:56:08,42.805,6.029,CST-1368DR,5054,6575,13911,0.462,551
2021-11-30T09:59:10,42.805,6.029,CST-1368DR,5054,6575,13911,0.462,551
2021-11-30T10:02:11,42.805,6.029,CST-1368DR,5054,6575,13910,0.463,551
2021-11-30T10:05:13,42.805,6.029,CST-1368DR,5054,6575,13911,0.462,550
2021-11-30T10:08:14,42.805,6.029,CST-1368DR,5054,6575,13911,0.462,551
2021-11-30T10:11:16,42.805,6.029,CST-1368DR,5054,6575,13911,0.462,551
2021-11-30T10:14:18,42.805,6.029,CST-1368DR,5054,6575,13910,0.463,551
2021-11-30T10:17:19,42.805,6.029,CST-1368DR,5054,6575,13910,0.463,551
2021-11-30T10:20:21,42.805,6.029,CST-1368DR,5054,6575,13911,0.462,551
2021-11-30T10:23:22,42.805,6.029,CST-1368DR,5054,6575,13910,0.463,551
2021-11-30T10:26:24,42.805,6.029,CST-1368DR,5054,6575,13911,0.462,551
2021-11-30T10:29:25,42.805,6.029,CST-1368DR,5054,6575,13910,0.463,551
2021-11-30T10:32:27,42.805,6.029,CST-1368DR,5054,6575,13912,0.462,551
2021-11-30T10:35:29,42.805,6.029,CST-1368DR,5054,6574,13910,0.463,551
2021-11-30T10:38:30,42.805,6.029,CST-1368DR,5054,6574,13909,0.463,551
2021-11-30T10:41:32,42.805,6.029,CST-1368DR,5054,6575,13910,0.463,551
2021-11-30T10:44:33,42.805,6.029,CST-1368DR,5054,6575,13911,0.462,551
2021-11-30T10:47:35,42.805,6.029,CST-1368DR,5054,6574,13910,0.463,551
2021-11-30T10:50:37,42.805,6.029,CST-1368DR,5054,6574,13908,0.463,551
2021-11-30T10:53:38,42.805,6.029,CST-1368DR,5054,6575,13911,0.462,551
2021-11-30T10:56:40,42.805,6.029,CST-1368DR,5054,6575,13910,0.463,551
2021-11-30T10:59:41,42.805,6.029,CST-1368DR,5054,6574,13910,0.463,551
2021-11-30T11:02:43,42.805,6.029,CST-1368DR,5054,6574,13909,0.463,551
2021-11-30T11:05:44,42.805,6.029,CST-1368DR,5054,6575,13910,0.463,551
2021-11-30T11:08:46,42.805,6.029,CST-1368DR,5054,6574,13909,0.463,551
2021-11-30T11:11:48,42.805,6.029,CST-1368DR,5054,6574,13910,0.463,551
2021-11-30T11:14:49,42.805,6.029,CST-1368DR,5054,6574,13910,0.463,551
2021-11-30T11:17:51,42.805,6.029,CST-1368DR,5054,6573,13908,0.463,551
2021-11-30T11:20:52,42.805,6.029,CST-1368DR,5054,6574,13908,0.463,551
2021-11-30T11:23:54,42.805,6.029,CST-1368DR,5054,6574,13909,0.463,551
2021-11-30T11:26:56,42.805,6.029,CST-1368DR,5054,6574,13909,0.463,551
2021-11-30T11:29:57,42.805,6.029,CST-1368DR,5054,6574,13908,0.463,551
2021-11-30T11:32:59,42.805,6.029,CST-1368DR,5054,6571,13903,0.465,551
2021-11-30T11:36:00,42.805,6.029,CST-1368DR,5054,6572,13904,0.464,551
2021-11-30T11:39:02,42.805,6.029,CST-1368DR,5054,6573,13907,0.464,551
2021-11-30T11:42:03,42.805,6.029,CST-1368DR,5054,6574,13909,0.463,551
2021-11-30T11:45:05,42.805,6.029,CST-1368DR,5054,6574,13908,0.463,551
2021-11-30T11:48:07,42.805,6.029,CST-1368DR,5054,6574,13908,0.463,551
2021-11-30T11:51:08,42.805,6.029,CST-1368DR,5054,6572,13904,0.464,551
2021-11-30T11:54:10,42.805,6.029,CST-1368DR,5054,6573,13907,0.464,551
2021-11-30T11:57:11,42.805,6.029,CST-1368DR,5054,6573,13906,0.464,551
2021-11-30T12:00:13,42.805,6.029,CST-1368DR,5054,6573,13907,0.464,551
2021-11-30T12:03:15,42.805,6.029,CST-1368DR,5054,6572,13905,0.464,551
2021-11-30T12:06:16,42.805,6.029,CST-1368DR,5054,6573,13906,0.464,551
2021-11-30T12:09:18,42.805,6.029,CST-1368DR,5054,6570,13901,0.465,551
2021-11-30T12:12:19,42.805,6.029,CST-1368DR,5054,6573,13906,0.464,551
2021-11-30T12:15:21,42.805,6.029,CST-1368DR,5054,6573,13906,0.464,551
2021-11-30T12:18:22,42.805,6.029,CST-1368DR,5054,6574,13908,0.463,551
2021-11-30T12:21:24,42.805,6.029,CST-1368DR,5054,6573,13908,0.463,551
2021-11-30T12:24:26,42.805,6.029,CST-1368DR,5054,6572,13904,0.464,551
2021-11-30T12:27:27,42.805,6.029,CST-1368DR,5054,6572,13906,0.464,551
2021-11-30T12:30:29,42.805,6.029,CST-1368DR,5054,6573,13906,0.464,551
2021-11-30T12:33:30,42.805,6.029,CST-1368DR,5054,6573,13907,0.464,551
2021-11-30T12:36:32,42.805,6.029,CST-1368DR,5054,6572,13906,0.464,551
2021-11-30T12:39:33,42.805,6.029,CST-1368DR,5054,6573,13907,0.464,551
2021-11-30T12:42:35,42.805,6.029,CST-1368DR,5054,6573,13907,0.464,551
2021-11-30T12:45:37,42.805,6.029,CST-1368DR,5054,6571,13903,0.465,551
2021-11-30T12:48:38,42.805,6.029,CST-1368DR,5054,6573,13907,0.464,551
2021-11-30T12:51:40,42.805,6.029,CST-1368DR,5054,6573,13906,0.464,551
2021-11-30T12:54:41,42.805,6.029,CST-1368DR,5054,6573,13907,0.464,551
2021-11-30T12:57:43,42.805,6.029,CST-1368DR,5054,6573,13908,0.463,551
2021-11-30T13:00:45,42.805,6.029,CST-1368DR,5054,6574,13908,0.463,551
2021-11-30T13:03:46,42.805,6.029,CST-1368DR,5054,6573,13907,0.464,551
2021-11-30T13:06:48,42.805,6.029,CST-1368DR,5054,6573,13907,0.464,551
2021-11-30T13:09:49,42.805,6.029,CST-1368DR,5054,6573,13906,0.464,551
2021-11-30T13:12:51,42.805,6.029,CST-1368DR,5054,6573,13907,0.464,551
2021-11-30T13:15:52,42.805,6.029,CST-1368DR,5054,6573,13907,0.464,551
2021-11-30T13:18:54,42.805,6.029,CST-1368DR,5054,6573,13907,0.464,551
2021-11-30T13:21:56,42.805,6.029,CST-1368DR,5054,6573,13907,0.464,551
2021-11-30T13:24:57,42.805,6.029,CST-1368DR,5054,6573,13907,0.464,551
2021-11-30T13:27:59,42.805,6.029,CST-1368DR,5054,6573,13907,0.464,551
2021-11-30T13:31:00,42.805,6.029,CST-1368DR,5054,6572,13905,0.464,551
2021-11-30T13:34:02,42.805,6.029,CST-1368DR,5054,6573,13908,0.463,551
2021-11-30T13:37:04,42.805,6.029,CST-1368DR,5054,6573,13907,0.464,551
2021-11-30T13:40:05,42.805,6.029,CST-1368DR,5054,6573,13907,0.464,551
2021-11-30T13:43:07,42.805,6.029,CST-1368DR,5054,6573,13908,0.463,551
2021-11-30T13:46:08,42.805,6.029,CST-1368DR,5054,6572,13905,0.464,551
2021-11-30T13:49:10,42.805,6.029,CST-1368DR,5054,6573,13907,0.464,551
2021-11-30T13:52:11,42.805,6.029,CST-1368DR,5054,6573,13907,0.464,551
2021-11-30T13:55:13,42.805,6.029,CST-1368DR,5054,6573,13907,0.464,551
2021-11-30T13:58:15,42.805,6.029,CST-1368DR,5054,6573,13906,0.464,551
2021-11-30T14:01:16,42.805,6.029,CST-1368DR,5054,6572,13906,0.464,551
2021-11-30T14:04:18,42.805,6.029,CST-1368DR,5054,6573,13906,0.464,551
2021-11-30T14:07:19,42.805,6.029,CST-1368DR,5054,6570,13900,0.466,551
2021-11-30T14:10:21,42.805,6.029,CST-1368DR,5054,6572,13904,0.464,551
2021-11-30T14:13:22,42.805,6.029,CST-1368DR,5054,6572,13905,0.464,551
2021-11-30T14:16:24,42.805,6.029,CST-1368DR,5054,6571,13902,0.465,551
2021-11-30T14:19:26,42.805,6.029,CST-1368DR,5054,6572,13906,0.464,551
2021-11-30T14:22:27,42.805,6.029,CST-1368DR,5054,6570,13901,0.465,551
2021-11-30T14:25:29,42.805,6.029,CST-1368DR,5054,6573,13907,0.464,551
2021-11-30T14:28:30,42.805,6.029,CST-1368DR,5054,6572,13906,0.464,551
2021-11-30T14:31:32,42.805,6.029,CST-1368DR,5054,6573,13907,0.464,551
2021-11-30T14:34:34,42.805,6.029,CST-1368DR,5054,6573,13906,0.464,551
2021-11-30T14:37:35,42.805,6.029,CST-1368DR,5054,6572,13906,0.464,551
2021-11-30T14:40:37,42.805,6.029,CST-1368DR,5054,6572,13906,0.464,551
2021-11-30T14:43:38,42.805,6.029,CST-1368DR,5054,6572,13906,0.464,551
2021-11-30T14:46:40,42.805,6.029,CST-1368DR,5054,6572,13906,0.464,551
2021-11-30T14:49:41,42.805,6.029,CST-1368DR,5054,6572,13906,0.464,551
2021-11-30T14:52:43,42.805,6.029,CST-1368DR,5054,6573,13907,0.464,551
2021-11-30T14:55:45,42.805,6.029,CST-1368DR,5054,6572,13905,0.464,551
2021-11-30T14:58:46,42.805,6.029,CST-1368DR,5054,6573,13906,0.464,551
2021-11-30T15:01:48,42.805,6.029,CST-1368DR,5054,6572,13905,0.464,551
2021-11-30T15:04:49,42.805,6.029,CST-1368DR,5054,6573,13907,0.464,551
2021-11-30T15:07:51,42.805,6.029,CST-1368DR,5054,6572,13904,0.464,551
2021-11-30T15:10:53,42.805,6.029,CST-1368DR,5053,6573,13909,0.463,551
2021-11-30T15:13:54,42.805,6.029,CST-1368DR,5053,6572,13908,0.463,551
2021-11-30T15:16:56,42.805,6.029,CST-1368DR,5054,6572,13905,0.464,551
2021-11-30T15:19:57,42.805,6.029,CST-1368DR,5053,6573,13909,0.463,551
2021-11-30T15:22:59,42.805,6.029,CST-1368DR,5054,6571,13903,0.465,551
2021-11-30T15:26:00,42.805,6.029,CST-1368DR,5054,6572,13906,0.464,551
2021-11-30T15:29:02,42.805,6.029,CST-1368DR,5054,6572,13905,0.464,551
2021-11-30T15:32:04,42.805,6.029,CST-1368DR,5053,6572,13908,0.463,551
2021-11-30T15:35:05,42.805,6.029,CST-1368DR,5053,6573,13909,0.463,551
2021-11-30T15:38:07,42.805,6.029,CST-1368DR,5053,6571,13906,0.464,551
2021-11-30T15:41:08,42.805,6.029,CST-1368DR,5053,6571,13906,0.464,551
2021-11-30T15:44:10,42.805,6.029,CST-1368DR,5053,6572,13907,0.464,551
2021-11-30T15:47:11,42.805,6.029,CST-1368DR,5054,6572,13904,0.464,551
2021-11-30T15:50:13,42.805,6.029,CST-1368DR,5053,6572,13907,0.464,551
2021-11-30T15:53:15,42.805,6.029,CST-1368DR,5053,6572,13908,0.463,551
2021-11-30T15:56:16,42.805,6.029,CST-1368DR,5053,6571,13906,0.464,551
2021-11-30T15:59:18,42.805,6.029,CST-1368DR,5053,6572,13907,0.464,551
2021-11-30T16:02:19,42.805,6.029,CST-1368DR,5053,6572,13907,0.464,551
2021-11-30T16:05:21,42.805,6.029,CST-1368DR,5054,6572,13904,0.464,551
2021-11-30T16:08:23,42.805,6.029,CST-1368DR,5053,6571,13906,0.464,551
2021-11-30T16:11:24,42.805,6.029,CST-1368DR,5053,6572,13907,0.464,551
2021-11-30T16:14:26,42.805,6.029,CST-1368DR,5053,6571,13906,0.464,551
2021-11-30T16:17:27,42.805,6.029,CST-1368DR,5053,6572,13907,0.464,551
2021-11-30T16:20:29,42.805,6.029,CST-1368DR,5053,6572,13907,0.464,551
2021-11-30T16:23:30,42.805,6.029,CST-1368DR,5053,6570,13904,0.464,551
2021-11-30T16:26:32,42.805,6.029,CST-1368DR,5053,6570,13904,0.464,551
2021-11-30T16:29:34,42.805,6.029,CST-1368DR,5053,6571,13905,0.464,551
2021-11-30T16:32:35,42.805,6.029,CST-1368DR,5054,6570,13901,0.465,551
2021-11-30T16:35:37,42.805,6.029,CST-1368DR,5053,6570,13904,0.464,551
2021-11-30T16:38:38,42.805,6.029,CST-1368DR,5053,6571,13905,0.464,551
2021-11-30T16:41:40,42.805,6.029,CST-1368DR,5054,6570,13900,0.466,551
2021-11-30T16:44:42,42.805,6.029,CST-1368DR,5053,6570,13904,0.464,551
2021-11-30T16:47:43,42.805,6.029,CST-1368DR,5053,6571,13905,0.464,551
2021-11-30T16:50:45,42.805,6.029,CST-1368DR,5053,6571,13905,0.464,551
2021-11-30T16:53:46,42.805,6.029,CST-1368DR,5053,6571,13905,0.464,551